Temp
60 60 60 60 59 59 59 58 58 58 57 57 57 56 56 56 55 55 56 56 56 56 56 57 57 57 57 57 57 57 57 57 57 56 56 56 55 55 55 55 55 55 55 55 54 53 53 53 52 53 54 57
58 58 58 58 57 57 57 57 57 56 56 56 55 55 54 54 53 54 54 54 54 54 54 54 55 56 56 56 56 56 56 56 56 56 55 55 55 55 54 54 54 54 54 54 53 53 53 52 52 53 56 57
57 55 56 56 56 55 55 55 55 55 54 54 53 53 53 53 52 52 52 52 53 53 52 52 53 54 55 55 55 55 55 55 55 55 55 54 54 54 54 54 53 53 53 53 52 52 52 52 52 55 56 56
57 54 54 54 53 53 53 53 53 53 53 52 52 51 52 53 54 54 53 52 52 51 50 49 50 52 54 54 53 53 53 53 54 54 54 54 53 53 53 53 53 53 53 53 53 52 52 52 55 55 56 55
56 54 53 53 52 52 52 52 52 52 53 53 52 53 53 54 56 56 55 54 53 51 50 47 48 49 51 52 52 51 51 51 52 53 53 52 52 52 51 52 53 53 53 53 53 52 52 54 55 54 54 55
57 57 57 57 56 56 55 54 53 54 55 54 55 53 56 56 56 55 54 52 50 52 50 49 46 47 48 49 50 50 49 49 50 51 51 51 51 51 51 52 53 53 52 53 52 52 53 54 54 53 54 54
58 58 58 56 56 54 54 54 55 55 55 55 54 55 56 56 55 55 53 50 48 49 47 47 46 47 48 48 49 49 49 50 50 50 51 50 51 52 51 52 52 52 51 52 52 52 53 53 52 52 53 54
59 59 59 58 57 57 56 55 55 54 54 54 53 54 55 55 53 54 55 48 45 47 53 52 49 49 49 49 49 48 50 50 50 50 51 50 50 51 50 51 51 51 51 51 51 52 52 51 51 51 52 53
58 58 58 58 58 57 57 56 55 55 54 52 53 53 54 52 53 53 54 53 53 53 52 52 52 52 51 51 50 49 50 50 50 50 49 50 49 50 49 49 49 49 49 50 50 50 50 50 50 50 51 51
57 57 57 57 57 57 57 55 55 55 54 53 52 52 53 54 53 53 53 52 51 51 52 51 51 51 51 50 49 50 49 48 49 49 49 48 48 49 49 48 48 48 48 48 48 49 48 48 48 49 50 50
58 58 57 57 57 56 55 55 55 54 54 52 52 52 52 53 53 52 52 51 51 50 51 49 49 50 50 48 48 49 48 46 48 48 48 47 47 48 47 48 48 48 48 48 47 47 47 47 47 48 48 49
57 57 56 54 53 55 54 54 54 53 53 51 51 50 52 52 52 52 51 50 50 49 50 48 48 49 49 48 48 48 48 46 46 47 47 46 46 47 47 47 47 47 47 47 48 46 46 46 46 47 47 48
57 56 55 55 55 53 52 54 53 52 52 52 52 50 50 50 51 51 50 49 49 50 48 48 47 48 47 47 47 47 46 46 45 45 46 45 45 46 46 46 46 46 47 47 47 46 45 45 46 46 47 47
56 55 54 54 54 53 52 53 52 51 52 52 51 50 49 49 50 49 49 48 49 48 47 47 47 47 46 46 46 45 44 45 44 44 44 44 44 44 44 45 46 45 45 46 46 46 45 44 45 46 46 46
56 55 54 53 53 53 53 51 51 52 52 51 51 49 47 48 48 49 48 47 47 48 47 46 46 45 46 45 45 45 43 44 43 44 43 43 42 43 43 44 45 45 44 45 46 46 44 44 45 45 46 46
55 55 54 53 53 52 52 51 52 51 51 49 49 47 46 47 47 47 47 45 46 45 45 45 44 44 43 43 44 44 42 42 43 43 43 43 43 43 44 44 45 45 44 45 45 45 44 45 45 45 46 45
55 54 53 52 52 52 50 51 51 51 50 49 48 47 46 46 46 47 47 45 44 44 44 43 43 43 43 43 42 43 42 41 43 43 43 42 43 43 43 43 43 44 44 44 44 44 44 45 44 45 45 45
54 53 52 53 53 51 50 51 51 50 50 49 48 47 45 45 45 46 46 45 43 45 44 43 42 41 42 42 41 42 42 41 42 41 41 41 41 41 42 41 42 42 41 43 43 43 43 44 44 45 45 45
54 53 52 52 52 51 50 51 51 50 49 48 48 47 45 45 44 44 44 44 44 43 43 43 42 41 41 40 41 41 41 40 41 41 39 40 38 39 40 40 40 40 40 40 40 41 42 42 44 44 44 45
54 53 53 52 50 51 50 50 50 50 49 49 48 47 45 44 44 43 43 43 43 43 43 43 42 41 40 39 41 40 40 40 39 39 38 39 38 36 37 38 38 40 39 40 39 40 41 42 42 43 44 45
52 52 52 52 51 50 49 49 49 49 49 48 47 47 45 43 43 43 42 42 42 43 42 42 41 41 39 39 39 39 39 39 39 38 36 37 38 37 35 36 37 38 38 38 38 39 39 40 41 42 43 45
51 51 52 51 50 49 48 49 49 49 48 47 47 46 45 43 43 42 42 42 42 42 42 41 40 40 38 38 38 38 38 37 38 37 36 35 36 37 35 35 35 35 36 35 35 37 38 39 41 42 43 44
50 50 51 51 49 48 48 48 48 48 47 46 47 45 44 43 43 42 41 41 41 41 40 40 39 38 38 38 38 37 37 37 37 36 35 33 34 36 36 35 35 35 35 34 34 35 38 40 42 42 43 43
48 48 47 46 47 46 46 47 46 46 46 46 46 45 43 42 42 41 41 40 41 40 40 39 38 38 37 37 37 36 36 36 36 33 33 33 33 33 34 36 36 36 34 34 34 36 40 41 41 42 42 43
46 45 45 45 45 44 46 46 47 45 46 46 45 44 43 42 42 41 40 40 40 39 39 39 39 37 36 37 37 36 35 35 33 33 33 33 34 33 32 33 36 34 34 32 34 38 37 38 42 43 42 42
47 47 46 45 45 46 47 46 45 44 45 45 45 43 43 42 42 41 40 40 40 39 39 38 38 37 36 36 36 36 35 34 33 32 32 32 32 35 33 32 34 32 32 31 31 29 31 35 41 43 42 40
46 48 48 48 48 47 47 49 48 47 46 46 44 43 42 42 41 40 39 40 39 38 38 38 38 37 37 36 36 34 33 33 32 33 31 31 31 31 33 33 35 31 32 27 30 31 31 30 31 36 39 40
49 49 49 49 49 49 49 48 48 48 48 45 44 41 42 41 41 40 39 39 38 38 37 38 37 37 36 35 36 35 35 34 33 33 32 32 31 31 29 32 33 34 30 30 29 23 27 26 30 26 34 34
48 48 47 47 47 48 47 48 46 45 43 43 42 41 40 40 40 39 39 38 38 37 37 37 37 37 37 35 35 35 35 35 34 33 32 31 30 30 29 28 31 32 33 29 31 27 25 23 23 25 30 30
47 46 45 44 41 39 40 40 40 39 39 40 40 39 41 41 40 39 39 38 37 37 37 36 36 36 36 35 35 35 35 36 34 32 31 32 31 30 30 29 28 28 33 31 29 29 29 29 23 22 26 26
45 44 45 44 42 42 41 40 42 44 44 43 43 42 42 40 40 39 38 38 38 37 37 36 36 36 36 36 35 36 35 35 34 33 32 32 31 31 31 29 27 27 29 32 31 29 29 29 28 28 24 20
MSLP
1027.80 1028.00 1028.16 1028.28 1028.44 1028.52 1028.68 1028.80 1028.88 1029.04 1029.12 1029.24 1029.32 1029.40 1029.48 1029.52 1029.52 1029.48 1029.44 1029.40 1029.36 1029.36 1029.36 1029.28 1029.20 1029.16 1029.12 1029.08 1029.04 1029.00 1028.96 1028.92 1028.84 1028.84 1028.80 1028.76 1028.76 1028.72 1028.72 1028.64 1028.52 1028.44 1028.36 1028.32 1028.28 1028.24 1028.12 1028.00 1027.92 1027.72 1027.44 1027.08
1028.24 1028.36 1028.48 1028.64 1028.72 1028.84 1028.96 1029.08 1029.16 1029.28 1029.40 1029.48 1029.60 1029.68 1029.76 1029.80 1029.84 1029.80 1029.76 1029.76 1029.72 1029.72 1029.72 1029.64 1029.56 1029.44 1029.36 1029.32 1029.28 1029.28 1029.24 1029.16 1029.08 1029.04 1029.00 1028.92 1028.88 1028.84 1028.84 1028.76 1028.68 1028.60 1028.52 1028.48 1028.40 1028.36 1028.20 1028.08 1027.96 1027.76 1027.48 1027.32
1028.64 1028.72 1028.80 1028.92 1029.04 1029.16 1029.24 1029.36 1029.48 1029.56 1029.68 1029.80 1029.88 1029.96 1029.96 1030.00 1030.04 1030.08 1030.08 1030.08 1030.08 1030.08 1030.08 1030.04 1029.92 1029.80 1029.68 1029.60 1029.56 1029.52 1029.44 1029.40 1029.32 1029.24 1029.24 1029.12 1029.04 1028.96 1028.88 1028.80 1028.76 1028.76 1028.64 1028.56 1028.52 1028.48 1028.32 1028.12 1027.92 1027.68 1027.48 1027.48
1028.76 1029.00 1029.12 1029.24 1029.40 1029.44 1029.52 1029.64 1029.76 1029.84 1029.96 1030.04 1030.12 1030.16 1030.12 1030.08 1030.00 1030.08 1030.16 1030.24 1030.28 1030.40 1030.40 1030.44 1030.36 1030.16 1030.00 1029.92 1029.88 1029.84 1029.76 1029.64 1029.52 1029.44 1029.40 1029.36 1029.24 1029.16 1029.04 1028.92 1028.80 1028.76 1028.68 1028.60 1028.52 1028.48 1028.36 1028.08 1027.76 1027.72 1027.68 1027.64
1028.88 1029.24 1029.32 1029.48 1029.64 1029.68 1029.76 1029.88 1029.96 1030.04 1030.08 1030.12 1030.24 1030.20 1030.16 1030.00 1029.96 1030.04 1030.16 1030.32 1030.36 1030.44 1030.60 1030.68 1030.64 1030.48 1030.36 1030.24 1030.16 1030.12 1030.08 1029.96 1029.76 1029.64 1029.56 1029.52 1029.40 1029.36 1029.20 1029.04 1028.80 1028.72 1028.72 1028.64 1028.56 1028.44 1028.32 1028.04 1027.84 1027.92 1027.88 1027.72
1028.92 1029.12 1029.20 1029.36 1029.48 1029.60 1029.76 1029.88 1029.92 1030.00 1030.04 1030.12 1030.12 1030.16 1030.04 1030.00 1030.08 1030.12 1030.32 1030.48 1030.56 1030.52 1030.60 1030.68 1030.80 1030.72 1030.56 1030.48 1030.40 1030.32 1030.24 1030.16 1030.04 1029.88 1029.76 1029.68 1029.56 1029.44 1029.32 1029.08 1028.88 1028.76 1028.72 1028.64 1028.60 1028.48 1028.32 1028.08 1028.08 1028.12 1028.00 1027.84
1028.84 1029.00 1029.16 1029.40 1029.60 1029.76 1029.84 1029.92 1029.92 1030.00 1030.12 1030.16 1030.24 1030.20 1030.08 1030.08 1030.24 1030.28 1030.44 1030.76 1030.80 1030.68 1030.68 1030.68 1030.76 1030.68 1030.60 1030.52 1030.48 1030.40 1030.24 1030.16 1030.12 1030.00 1029.88 1029.80 1029.64 1029.44 1029.36 1029.16 1029.04 1028.96 1028.88 1028.72 1028.64 1028.52 1028.36 1028.36 1028.32 1028.28 1028.12 1027.96
1028.64 1028.84 1029.00 1029.20 1029.36 1029.48 1029.64 1029.80 1029.96 1030.08 1030.16 1030.24 1030.28 1030.24 1030.20 1030.24 1030.44 1030.36 1030.28 1030.60 1030.68 1030.56 1030.32 1030.36 1030.48 1030.52 1030.44 1030.40 1030.40 1030.44 1030.16 1030.08 1030.04 1029.96 1029.88 1029.84 1029.72 1029.52 1029.48 1029.44 1029.32 1029.20 1029.08 1028.92 1028.84 1028.68 1028.64 1028.64 1028.60 1028.44 1028.20 1028.08
1028.60 1028.76 1028.92 1029.08 1029.24 1029.36 1029.48 1029.68 1029.80 1029.96 1030.16 1030.32 1030.36 1030.36 1030.32 1030.44 1030.44 1030.36 1030.36 1030.48 1030.40 1030.40 1030.44 1030.44 1030.40 1030.36 1030.36 1030.44 1030.40 1030.44 1030.28 1030.28 1030.20 1030.04 1029.96 1029.88 1029.84 1029.72 1029.72 1029.68 1029.60 1029.52 1029.40 1029.24 1029.12 1028.96 1028.92 1028.88 1028.80 1028.64 1028.44 1028.28
1028.68 1028.80 1028.88 1029.08 1029.20 1029.32 1029.48 1029.64 1029.76 1029.84 1030.04 1030.20 1030.40 1030.40 1030.40 1030.32 1030.36 1030.32 1030.36 1030.48 1030.56 1030.52 1030.48 1030.52 1030.52 1030.52 1030.52 1030.60 1030.56 1030.52 1030.48 1030.56 1030.40 1030.32 1030.20 1030.20 1030.12 1030.00 1029.96 1029.88 1029.84 1029.76 1029.64 1029.52 1029.40 1029.24 1029.20 1029.08 1028.96 1028.76 1028.56 1028.44
1028.60 1028.64 1028.84 1029.00 1029.16 1029.32 1029.48 1029.60 1029.76 1029.92 1030.08 1030.32 1030.48 1030.44 1030.44 1030.32 1030.28 1030.32 1030.32 1030.48 1030.56 1030.64 1030.60 1030.68 1030.72 1030.68 1030.68 1030.76 1030.72 1030.72 1030.68 1030.80 1030.64 1030.56 1030.48 1030.48 1030.40 1030.28 1030.20 1030.04 1030.00 1029.88 1029.80 1029.68 1029.56 1029.44 1029.36 1029.28 1029.12 1028.92 1028.76 1028.56
1028.48 1028.68 1028.92 1029.24 1029.44 1029.36 1029.56 1029.60 1029.76 1029.92 1030.16 1030.40 1030.52 1030.60 1030.56 1030.48 1030.44 1030.40 1030.48 1030.60 1030.64 1030.68 1030.72 1030.84 1030.88 1030.80 1030.80 1030.84 1030.88 1030.92 1030.88 1030.96 1030.88 1030.76 1030.72 1030.68 1030.64 1030.44 1030.36 1030.20 1030.12 1030.04 1029.92 1029.76 1029.64 1029.60 1029.52 1029.44 1029.24 1029.04 1028.88 1028.72
1028.44 1028.68 1028.92 1029.08 1029.16 1029.40 1029.64 1029.56 1029.76 1030.00 1030.20 1030.24 1030.40 1030.64 1030.72 1030.68 1030.52 1030.52 1030.56 1030.76 1030.76 1030.76 1030.88 1030.92 1031.00 1030.92 1030.96 1031.00 1031.04 1031.08 1031.08 1031.08 1031.04 1030.96 1030.92 1030.88 1030.84 1030.64 1030.52 1030.32 1030.24 1030.24 1030.04 1029.88 1029.76 1029.72 1029.68 1029.60 1029.40 1029.12 1028.96 1028.76
1028.44 1028.60 1028.84 1029.00 1029.12 1029.40 1029.60 1029.64 1029.84 1030.04 1030.00 1030.12 1030.32 1030.52 1030.76 1030.80 1030.68 1030.72 1030.68 1030.80 1030.84 1030.84 1031.00 1030.96 1031.08 1031.04 1031.08 1031.16 1031.20 1031.24 1031.32 1031.28 1031.24 1031.16 1031.08 1031.12 1031.04 1030.92 1030.76 1030.56 1030.44 1030.40 1030.20 1030.04 1029.92 1029.84 1029.84 1029.72 1029.48 1029.28 1029.04 1028.84
1028.28 1028.52 1028.68 1028.92 1029.12 1029.32 1029.44 1029.72 1029.88 1029.88 1030.00 1030.16 1030.32 1030.56 1030.84 1030.84 1030.88 1030.80 1030.88 1030.92 1030.96 1030.88 1030.96 1031.00 1031.08 1031.20 1031.24 1031.24 1031.40 1031.44 1031.56 1031.52 1031.44 1031.32 1031.28 1031.32 1031.24 1031.08 1030.92 1030.68 1030.56 1030.48 1030.36 1030.12 1030.00 1029.92 1029.92 1029.80 1029.56 1029.36 1029.16 1028.92
1028.20 1028.40 1028.60 1028.88 1029.04 1029.24 1029.44 1029.68 1029.64 1029.80 1029.96 1030.16 1030.40 1030.68 1030.80 1030.80 1030.88 1030.88 1030.96 1031.12 1031.12 1031.12 1031.12 1031.20 1031.32 1031.32 1031.48 1031.48 1031.56 1031.60 1031.72 1031.72 1031.56 1031.44 1031.36 1031.32 1031.28 1031.12 1030.92 1030.76 1030.60 1030.56 1030.40 1030.20 1030.04 1030.00 1029.92 1029.76 1029.60 1029.40 1029.16 1029.00
1028.16 1028.36 1028.64 1028.84 1028.92 1029.16 1029.48 1029.52 1029.56 1029.68 1029.88 1030.04 1030.40 1030.64 1030.80 1030.84 1030.92 1030.88 1030.88 1031.08 1031.28 1031.28 1031.24 1031.44 1031.48 1031.48 1031.56 1031.64 1031.80 1031.76 1031.84 1031.76 1031.52 1031.44 1031.40 1031.36 1031.20 1031.08 1030.96 1030.80 1030.72 1030.60 1030.44 1030.28 1030.16 1030.04 1029.96 1029.76 1029.56 1029.36 1029.20 1029.00
1028.04 1028.32 1028.52 1028.64 1028.80 1029.08 1029.36 1029.28 1029.44 1029.60 1029.76 1030.00 1030.20 1030.48 1030.76 1030.84 1030.88 1030.88 1030.92 1031.04 1031.20 1031.12 1031.16 1031.40 1031.52 1031.64 1031.68 1031.84 1031.96 1031.88 1031.88 1031.80 1031.64 1031.60 1031.64 1031.52 1031.36 1031.28 1031.04 1030.96 1030.84 1030.76 1030.60 1030.40 1030.32 1030.20 1030.04 1029.84 1029.56 1029.36 1029.16 1028.96
1027.88 1028.12 1028.32 1028.52 1028.68 1028.92 1029.08 1029.12 1029.28 1029.44 1029.64 1029.88 1030.00 1030.32 1030.60 1030.72 1030.84 1030.92 1031.00 1031.04 1031.00 1031.12 1031.12 1031.20 1031.36 1031.60 1031.72 1031.96 1031.96 1031.92 1031.96 1032.00 1031.80 1031.76 1031.88 1031.72 1031.72 1031.52 1031.32 1031.12 1031.08 1030.92 1030.76 1030.60 1030.48 1030.32 1030.12 1029.88 1029.60 1029.40 1029.12 1028.84
1027.80 1028.04 1028.20 1028.36 1028.56 1028.72 1029.00 1029.04 1029.12 1029.28 1029.52 1029.68 1029.84 1030.08 1030.36 1030.64 1030.76 1030.84 1030.92 1030.96 1030.96 1030.92 1030.96 1031.04 1031.20 1031.40 1031.76 1031.92 1031.84 1031.88 1031.96 1031.96 1031.88 1031.92 1032.08 1031.92 1031.84 1031.80 1031.64 1031.40 1031.28 1031.00 1030.92 1030.72 1030.64 1030.48 1030.20 1029.88 1029.64 1029.36 1029.04 1028.80
1027.76 1027.88 1028.04 1028.20 1028.48 1028.64 1028.88 1028.92 1029.00 1029.16 1029.36 1029.56 1029.76 1029.92 1030.20 1030.52 1030.68 1030.80 1030.88 1030.92 1030.92 1030.88 1031.00 1031.04 1031.20 1031.40 1031.76 1031.84 1031.84 1031.88 1031.96 1031.96 1031.92 1032.08 1032.20 1032.04 1031.92 1031.88 1031.84 1031.56 1031.32 1031.16 1031.00 1030.96 1030.84 1030.56 1030.24 1029.92 1029.60 1029.24 1028.92 1028.68
1027.68 1027.80 1027.92 1028.08 1028.28 1028.48 1028.68 1028.72 1028.84 1029.04 1029.28 1029.44 1029.60 1029.76 1030.00 1030.32 1030.52 1030.64 1030.76 1030.84 1030.84 1030.80 1030.92 1031.04 1031.16 1031.36 1031.68 1031.72 1031.76 1031.84 1031.88 1031.96 1032.08 1032.24 1032.24 1032.24 1032.08 1031.96 1031.88 1031.64 1031.48 1031.40 1031.24 1031.20 1030.96 1030.60 1030.20 1029.84 1029.44 1029.12 1028.84 1028.60
1027.56 1027.72 1027.80 1027.92 1028.12 1028.36 1028.48 1028.60 1028.72 1028.88 1029.08 1029.24 1029.36 1029.56 1029.80 1030.16 1030.28 1030.48 1030.64 1030.72 1030.76 1030.76 1030.88 1031.00 1031.16 1031.32 1031.56 1031.56 1031.64 1031.68 1031.72 1031.76 1031.96 1032.20 1032.36 1032.40 1032.28 1032.08 1031.92 1031.80 1031.60 1031.48 1031.40 1031.28 1030.92 1030.48 1030.00 1029.48 1029.16 1028.92 1028.76 1028.56
1027.40 1027.56 1027.64 1027.80 1028.00 1028.20 1028.28 1028.36 1028.56 1028.72 1028.84 1028.96 1029.12 1029.32 1029.64 1029.92 1030.00 1030.20 1030.40 1030.52 1030.60 1030.64 1030.64 1030.80 1030.96 1031.16 1031.40 1031.44 1031.44 1031.56 1031.64 1031.68 1031.76 1032.20 1032.36 1032.32 1032.24 1032.20 1031.96 1031.64 1031.44 1031.44 1031.56 1031.28 1030.80 1030.08 1029.44 1029.20 1028.88 1028.64 1028.56 1028.40
1027.00 1027.20 1027.40 1027.56 1027.60 1027.68 1027.80 1027.96 1028.16 1028.44 1028.56 1028.68 1028.80 1029.08 1029.40 1029.60 1029.68 1029.92 1030.16 1030.28 1030.40 1030.48 1030.52 1030.60 1030.72 1031.04 1031.20 1031.24 1031.28 1031.40 1031.52 1031.80 1032.12 1032.28 1032.32 1032.32 1032.16 1032.04 1031.96 1031.68 1031.40 1031.60 1031.68 1031.28 1030.16 1029.60 1029.52 1029.08 1028.48 1028.12 1028.28 1028.36
1026.52 1026.56 1026.64 1026.84 1027.04 1027.16 1027.24 1027.52 1027.76 1027.96 1028.08 1028.28 1028.44 1028.84 1029.12 1029.32 1029.44 1029.68 1029.92 1030.04 1030.16 1030.24 1030.36 1030.40 1030.56 1030.76 1030.88 1031.00 1031.04 1031.16 1031.48 1031.80 1032.00 1032.24 1032.32 1032.24 1032.08 1031.68 1031.76 1031.72 1031.52 1031.88 1031.68 1031.16 1030.68 1030.52 1029.84 1028.92 1028.04 1027.72 1027.92 1028.16
1025.96 1026.12 1026.28 1026.36 1026.48 1026.72 1026.80 1026.84 1027.08 1027.36 1027.52 1027.88 1028.16 1028.52 1028.80 1029.00 1029.12 1029.44 1029.64 1029.72 1029.88 1030.04 1030.16 1030.20 1030.32 1030.44 1030.64 1030.80 1030.88 1031.08 1031.36 1031.60 1031.84 1031.80 1032.08 1032.20 1032.08 1031.92 1031.68 1031.52 1031.32 1031.88 1031.88 1032.04 1031.36 1030.96 1029.96 1029.24 1028.64 1028.08 1027.56 1027.72
1025.48 1025.72 1025.88 1026.12 1026.20 1026.28 1026.32 1026.32 1026.68 1026.92 1027.12 1027.56 1027.88 1028.20 1028.44 1028.68 1028.80 1029.08 1029.28 1029.44 1029.64 1029.84 1029.96 1030.00 1030.04 1030.16 1030.32 1030.60 1030.68 1030.72 1030.76 1030.92 1031.36 1031.52 1031.76 1031.88 1032.00 1032.00 1031.96 1031.28 1031.28 1031.36 1032.08 1032.08 1031.76 1031.52 1030.44 1030.28 1029.44 1029.28 1027.24 1028.04
1025.28 1025.52 1025.76 1025.88 1026.08 1026.24 1026.20 1026.32 1026.48 1026.72 1026.88 1027.20 1027.48 1027.76 1028.00 1028.16 1028.44 1028.72 1028.96 1029.12 1029.36 1029.52 1029.68 1029.76 1029.84 1029.88 1030.00 1030.20 1030.40 1030.52 1030.52 1030.60 1030.88 1031.20 1031.48 1031.76 1031.92 1031.84 1031.80 1031.80 1031.48 1031.44 1031.56 1032.12 1032.08 1032.08 1031.40 1030.48 1029.40 1028.96 1028.80 1029.28
1024.92 1025.04 1025.24 1025.44 1025.88 1026.32 1026.20 1026.24 1026.24 1026.20 1026.24 1026.56 1026.84 1026.96 1027.20 1027.72 1028.00 1028.28 1028.56 1028.72 1028.96 1029.12 1029.32 1029.48 1029.56 1029.64 1029.72 1029.88 1030.04 1030.12 1030.16 1030.28 1030.60 1031.08 1031.28 1031.44 1031.56 1031.64 1031.76 1031.84 1031.76 1031.64 1031.20 1031.64 1032.12 1032.12 1031.92 1031.48 1031.44 1031.16 1030.72 1030.44
1024.44 1024.64 1024.68 1024.80 1025.00 1025.08 1025.12 1025.20 1025.04 1025.24 1025.56 1025.80 1026.04 1026.44 1026.64 1027.04 1027.44 1027.76 1028.00 1028.28 1028.52 1028.68 1028.88 1029.08 1029.24 1029.36 1029.44 1029.48 1029.56 1029.60 1029.76 1029.92 1030.20 1030.52 1030.96 1031.20 1031.40 1031.36 1031.48 1031.64 1031.76 1031.52 1031.40 1031.16 1031.44 1031.76 1031.92 1031.84 1031.80 1031.76 1031.72 1031.52
Wind_Speed
18 17 17 17 16 16 16 16 16 15 15 15 15 15 15 15 15 15 15 16 16 16 16 15 15 15 15 15 15 16 16 16 16 16 16 16 16 15 15 14 14 14 14 14 14 14 14 13 11 11 11 7
17 17 17 17 16 16 16 15 15 15 15 15 14 14 14 14 14 14 15 15 15 15 15 15 15 15 15 15 15 15 15 15 15 15 15 16 15 15 14 14 12 13 13 13 14 14 14 13 10 8 8 7
12 16 16 16 16 16 16 15 15 15 15 14 13 13 12 12 13 13 13 13 14 15 15 14 13 14 14 15 15 15 15 15 15 15 15 15 15 15 15 14 10 11 12 12 13 13 13 12 10 8 8 7
11 13 15 15 15 15 15 15 15 14 13 12 11 10 9 8 7 8 9 10 10 12 13 14 12 14 14 14 14 14 15 15 15 15 15 15 14 15 15 14 10 10 11 11 13 13 12 11 9 7 6 8
10 11 14 13 14 15 14 13 12 11 10 9 8 6 4 4 6 6 6 7 7 8 9 11 12 12 13 13 13 12 13 14 14 14 14 15 14 13 14 12 10 10 11 11 13 13 11 10 6 6 6 6
7 7 9 9 8 8 9 8 8 7 6 5 5 3 3 4 5 5 6 6 6 5 6 8 9 9 10 11 13 10 10 10 13 11 13 13 13 11 12 11 7 8 9 11 13 12 11 7 6 7 6 6
7 7 6 7 7 6 7 7 6 6 5 5 5 4 4 4 4 4 4 5 3 2 3 4 5 6 6 8 10 11 8 8 11 10 11 11 13 10 11 7 6 7 7 7 11 10 7 7 7 7 7 6
6 6 6 5 5 5 5 5 5 5 5 4 5 4 4 4 3 3 3 5 7 7 2 2 2 4 5 7 8 12 6 9 9 11 10 10 12 8 6 6 6 6 6 6 7 7 6 6 7 7 7 6
5 5 5 4 4 4 4 4 4 4 4 4 4 4 3 3 2 2 3 4 4 4 3 4 4 4 5 5 6 8 6 6 7 8 7 7 8 7 7 7 7 6 6 7 7 6 7 7 7 6 6 6
6 5 5 5 4 4 4 3 3 3 3 3 3 3 3 1 2 2 2 3 4 4 3 4 4 4 5 5 5 6 6 6 6 6 6 7 7 7 6 7 7 6 6 6 6 6 7 7 7 6 6 6
6 4 5 4 4 4 4 4 3 3 3 3 3 2 2 2 2 2 2 3 3 3 4 4 4 4 4 5 5 6 5 6 6 6 6 6 7 6 7 6 6 6 7 6 6 6 6 7 7 7 6 6
5 5 5 5 5 3 4 3 3 3 3 3 3 3 2 2 2 2 2 3 3 3 3 4 4 4 4 4 4 5 5 5 6 6 5 6 7 7 6 6 6 6 6 6 6 6 6 7 7 6 6 6
5 5 5 5 4 4 4 3 3 3 3 3 3 3 2 2 1 1 1 2 2 2 3 3 3 3 4 4 4 4 5 5 5 5 5 6 6 6 6 6 6 6 6 6 6 6 6 7 7 7 7 7
5 5 5 5 4 4 4 3 3 4 3 3 2 3 2 1 1 1 2 1 2 2 2 2 3 3 3 3 4 4 5 5 5 5 5 5 6 6 6 5 5 6 6 6 6 5 6 6 6 6 6 7
6 6 5 5 5 5 4 4 4 3 3 3 2 3 2 2 1 1 1 1 2 1 1 2 2 3 3 3 4 4 4 5 4 4 4 5 5 5 6 5 5 5 6 5 5 5 6 6 6 6 6 6
6 6 5 6 5 5 4 5 4 3 3 3 3 3 2 1 1 1 1 2 1 1 1 2 2 2 3 3 3 3 4 4 4 4 4 5 5 5 5 5 5 5 5 6 5 6 6 6 6 6 6 6
6 5 5 6 5 5 5 5 4 4 4 4 4 4 3 2 2 2 1 2 1 1 1 1 1 2 2 2 3 3 4 4 3 3 4 5 5 5 5 5 5 5 5 6 6 6 7 6 7 6 6 6
6 6 6 5 5 5 6 5 4 4 4 4 4 4 4 3 3 2 2 2 2 1 2 2 2 1 2 2 2 2 3 4 3 3 5 5 5 5 5 5 5 6 5 5 6 6 7 6 7 7 7 6
7 7 6 5 5 5 5 5 4 4 4 4 4 4 4 4 3 3 2 2 2 2 2 2 2 1 2 2 1 1 2 3 3 3 4 4 4 5 5 5 6 6 6 6 7 7 7 7 7 7 7 7
7 7 6 6 5 5 6 5 5 5 5 4 5 4 4 5 4 4 4 3 3 3 2 2 2 2 2 1 1 1 2 2 2 3 3 3 4 4 5 5 5 5 6 6 7 7 7 7 7 7 7 7
8 7 7 7 6 6 6 5 5 5 5 5 5 5 5 6 5 5 5 4 3 3 3 3 2 3 2 1 0 1 1 1 2 3 3 4 4 4 5 5 6 6 6 6 7 8 8 8 7 7 7 7
8 7 7 7 6 7 7 7 5 5 5 6 6 6 6 7 6 6 6 5 5 4 3 3 3 3 2 2 1 1 1 1 1 2 3 4 4 4 4 5 5 6 6 6 7 8 8 8 7 7 7 6
9 8 8 7 7 7 8 6 6 6 6 6 6 6 7 8 6 6 6 6 5 5 5 4 4 4 3 2 2 1 1 0 1 1 2 3 4 4 4 4 5 5 6 7 8 9 9 8 8 7 7 6
8 8 8 8 8 8 8 8 7 7 7 7 7 7 8 8 7 7 7 7 6 5 5 5 5 4 4 3 3 2 2 1 1 2 2 3 4 5 4 4 4 4 6 8 9 9 7 8 10 9 6 6
10 9 9 9 9 9 9 9 9 8 8 8 8 9 9 9 7 8 8 7 7 6 5 5 5 5 5 4 3 3 3 2 1 1 2 2 4 4 4 4 3 3 6 8 7 6 8 9 9 7 5 5
11 10 10 9 9 9 8 9 9 9 9 9 8 9 9 8 8 9 8 7 7 7 6 6 6 5 5 5 4 3 3 3 2 3 2 2 3 3 3 4 4 2 5 5 7 9 9 7 6 3 5 6
11 11 10 10 9 9 8 9 9 9 9 9 8 9 9 9 8 9 8 8 8 7 7 7 6 6 6 6 5 5 5 6 4 4 3 2 2 3 3 4 3 2 3 5 7 7 9 7 8 7 6 6
12 11 11 11 9 10 10 9 9 9 9 9 10 10 10 9 9 10 9 9 9 7 7 8 7 7 7 6 6 5 5 5 5 4 3 2 2 2 3 3 3 1 1 2 6 4 5 7 7 7 2 6
12 11 11 10 9 7 8 6 7 8 8 10 10 9 10 11 11 11 10 10 10 9 9 8 8 7 7 7 7 5 5 5 5 4 3 3 2 2 2 4 3 4 2 3 2 3 5 3 3 3 7 10
13 12 11 11 10 10 10 10 10 12 12 11 12 12 10 11 12 12 11 10 11 10 9 9 9 8 8 8 7 6 5 5 5 6 5 4 3 2 3 2 4 4 3 3 4 4 5 5 5 7 8 8
13 13 13 15 13 12 13 12 12 11 10 10 10 10 11 11 12 13 12 12 11 11 11 10 9 9 9 8 8 7 6 6 6 5 6 4 4 3 2 3 4 4 4 3 5 6 5 6 6 7 6 5
Wind_Direction
87 88 89 88 87 85 84 82 81 80 79 77 74 71 69 64 61 58 54 50 49 47 44 39 38 38 36 35 34 32 31 29 29 26 24 23 23 21 19 16 17 16 16 16 14 10 4 359 0 354 341 8
86 88 89 89 88 87 86 83 81 79 77 75 73 72 70 66 62 59 55 52 50 47 42 37 35 34 34 33 33 31 29 28 27 26 22 18 18 17 15 13 15 16 14 16 14 9 0 353 349 341 346 8
93 90 90 90 90 89 87 85 83 79 76 72 69 68 68 71 68 63 57 56 51 48 44 37 35 32 33 32 31 29 25 25 25 24 22 18 15 12 10 9 14 15 12 13 12 9 0 348 332 355 3 3
99 90 91 90 90 88 86 84 82 80 77 70 67 65 64 65 80 71 65 58 58 51 47 41 35 32 32 32 30 28 24 20 19 20 19 17 13 10 5 3 2 12 10 9 7 5 358 344 352 16 3 353
103 105 101 94 90 88 86 86 85 89 88 85 69 65 71 79 56 61 54 47 48 55 58 43 37 33 31 31 27 26 24 19 15 15 15 13 11 9 3 359 355 8 5 7 6 360 358 353 12 8 357 352
118 121 115 114 111 104 102 95 97 85 82 75 79 91 73 55 51 54 52 45 26 53 43 52 36 30 31 29 24 18 18 18 14 10 10 10 5 5 3 2 360 1 358 0 4 357 2 3 7 359 352 346
128 128 121 116 111 110 103 98 88 89 75 66 61 50 54 50 49 49 76 49 45 3 112 81 52 30 24 25 24 8 7 11 11 3 8 7 1 3 7 5 2 0 355 353 358 356 6 2 1 349 347 346
140 137 138 133 131 123 115 107 99 85 75 68 54 48 42 53 47 32 47 150 185 223 350 76 108 30 17 18 23 6 2 2 10 355 6 5 360 4 10 4 1 358 355 352 353 354 0 358 353 346 345 345
140 139 134 132 128 121 117 114 109 101 91 74 62 43 54 48 52 31 47 26 21 11 21 12 6 8 11 9 10 7 8 5 0 357 2 1 0 3 3 360 360 356 354 352 350 352 356 350 349 342 342 342
128 148 141 138 134 133 124 122 115 108 105 96 61 53 28 54 51 28 43 32 17 14 16 8 11 6 11 3 9 6 6 8 359 357 3 1 359 357 357 355 355 353 351 349 347 348 350 347 344 338 338 336
156 149 139 138 136 142 138 134 129 118 108 83 76 63 60 14 22 21 25 22 19 15 14 13 6 8 10 6 10 4 5 7 357 1 0 1 356 351 351 349 350 350 346 346 344 345 345 345 337 335 335 333
152 145 137 129 131 150 114 136 130 123 98 107 104 62 39 10 18 9 19 14 10 10 15 16 6 5 12 12 11 6 6 8 358 359 1 358 352 351 349 347 348 349 342 343 345 344 344 340 334 332 330 328
155 149 149 153 150 130 147 145 134 120 140 144 110 101 77 32 359 28 31 20 16 7 17 16 9 5 14 15 14 7 7 10 358 358 359 359 350 351 347 343 351 344 340 339 344 342 342 336 330 329 328 326
159 157 153 157 152 136 162 144 130 152 159 137 144 124 95 47 35 36 4 49 358 25 16 10 17 9 15 18 17 12 9 6 357 356 356 357 349 348 344 344 347 340 337 336 338 340 336 330 327 328 324 323
167 165 164 157 154 161 161 144 156 171 151 147 135 108 107 122 81 49 74 28 7 9 8 26 18 17 15 18 21 16 11 358 353 355 356 354 347 343 338 340 341 340 332 331 333 337 332 325 323 321 318 319
174 175 165 161 166 165 156 163 175 163 161 155 133 134 139 142 91 88 97 51 36 1 35 36 20 25 23 20 18 13 13 351 343 347 351 349 339 332 333 333 340 339 329 329 334 331 328 324 319 316 315 314
179 172 163 174 174 162 161 179 176 175 168 159 144 145 152 138 152 170 132 125 115 182 100 73 47 31 39 33 10 3 0 342 339 353 356 348 340 344 333 336 335 339 328 331 332 332 327 322 316 314 314 310
180 175 179 177 178 161 178 183 181 173 169 161 154 151 150 157 155 156 150 157 150 181 130 127 115 78 61 44 352 357 360 350 355 357 354 348 348 342 341 338 338 335 331 329 329 327 325 316 316 316 310 306
188 181 181 183 181 173 189 182 184 180 166 167 168 157 160 162 156 155 143 163 162 155 144 151 126 114 88 34 334 354 17 347 345 9 352 349 347 336 339 335 331 328 327 324 326 324 320 312 312 311 304 305
194 188 188 190 184 181 187 187 190 182 177 176 173 171 156 164 167 165 160 164 171 166 155 145 128 120 75 12 3 5 1 345 350 15 348 343 343 338 331 331 324 324 321 321 320 317 309 306 306 303 302 303
196 196 193 193 184 188 185 195 191 187 179 181 179 177 171 168 172 172 169 168 176 166 162 157 145 126 121 116 6 23 350 352 359 15 345 336 345 332 324 321 323 324 322 322 314 307 304 301 299 296 302 301
196 199 196 197 191 193 193 200 194 188 184 188 186 182 177 169 176 173 172 173 179 166 159 153 151 143 135 173 174 140 330 355 14 357 346 334 332 333 320 320 327 322 323 319 308 300 298 294 291 294 300 300
200 200 202 200 196 195 203 199 199 192 192 193 189 189 174 171 182 172 175 177 180 173 170 165 161 165 156 180 173 154 224 189 176 356 338 322 316 319 313 306 307 315 318 314 301 296 291 288 290 288 289 292
199 199 200 199 197 202 204 202 199 197 199 194 193 185 173 179 185 171 178 179 182 179 178 173 168 164 167 178 175 185 163 229 59 356 318 313 314 308 308 302 307 325 327 308 295 285 294 299 291 281 271 276
195 197 197 204 205 205 201 203 200 198 201 198 196 178 181 180 189 173 177 181 180 182 180 179 163 166 172 179 173 187 167 152 161 242 299 308 302 295 301 308 315 346 326 309 303 315 312 299 284 265 251 258
200 201 200 198 205 207 206 202 201 201 201 196 192 177 186 182 186 177 180 182 184 182 180 184 171 178 175 180 181 172 161 160 178 198 207 289 297 296 307 300 308 338 325 324 333 325 317 304 292 293 238 238
204 204 206 207 208 207 214 212 207 203 201 190 189 182 186 186 185 179 185 182 184 182 187 188 182 180 175 184 177 179 187 175 188 181 190 232 289 312 303 285 276 153 345 318 317 299 289 310 317 308 275 212
208 207 208 212 217 217 218 214 204 209 202 191 187 190 187 192 186 185 187 184 184 183 191 189 188 183 178 179 182 192 187 182 178 182 187 193 236 257 299 308 315 92 147 311 325 335 324 306 297 307 312 22
204 205 209 209 212 224 220 218 207 202 201 195 195 193 192 195 188 187 189 185 187 185 189 189 190 188 182 179 181 188 189 190 185 174 183 182 211 228 280 298 296 299 239 197 271 304 312 306 279 289 326 331
198 202 202 200 194 199 205 208 201 204 202 195 196 199 193 190 189 188 188 188 187 188 188 190 190 191 185 181 181 188 188 181 170 181 181 190 198 221 233 260 289 281 282 196 214 241 257 281 295 308 308 307
196 202 207 206 205 208 209 214 218 213 208 204 202 194 194 189 189 189 188 188 188 188 190 188 189 190 191 186 186 183 182 186 185 178 179 176 198 212 215 231 255 272 276 278 230 210 230 250 271 280 293 283